contact:dominique.lefevre@mio.osupytheas.fr, maurice.libes@osupytheas.fr, didier.mallarino@osupytheas.fr
Project:EMSO http://www.emso-fr.org/EMSO-France
Depth: 2436.0 m
Title:EMSO Ligure Ouest : Data MII capteur OXYGEN
DateTime,Latitude,Longitude,Optode-Type,Optode_Serial,Oxygen,Saturation_Oxygen,Temperature
DateTime,Latitude,Longitude,Optode-Type,Optode_Serial,µmol.l-1,%,degC
2019-07-10T00:02:05,42.805,6.029,4330,1995,192.405,58.845,13.292
2019-07-10T00:05:05,42.805,6.029,4330,1995,192.405,58.845,13.292
2019-07-10T00:08:05,42.805,6.029,4330,1995,192.357,58.831,13.292
2019-07-10T00:11:05,42.805,6.029,4330,1995,192.368,58.835,13.293
2019-07-10T00:14:05,42.805,6.029,4330,1995,192.387,58.840,13.292
2019-07-10T00:17:05,42.805,6.029,4330,1995,192.390,58.841,13.292
2019-07-10T00:20:05,42.805,6.029,4330,1995,192.412,58.848,13.293
2019-07-10T00:23:05,42.805,6.029,4330,1995,192.478,58.869,13.293
2019-07-10T00:26:05,42.805,6.029,4330,1995,192.425,58.852,13.292
2019-07-10T00:29:05,42.805,6.029,4330,1995,192.440,58.857,13.293
2019-07-10T00:32:05,42.805,6.029,4330,1995,192.492,58.873,13.293
2019-07-10T00:35:05,42.805,6.029,4330,1995,192.413,58.849,13.293
2019-07-10T00:38:05,42.805,6.029,4330,1995,192.512,58.879,13.292
2019-07-10T00:41:05,42.805,6.029,4330,1995,192.364,58.834,13.293
2019-07-10T00:44:05,42.805,6.029,4330,1995,192.296,58.813,13.293
2019-07-10T00:47:05,42.805,6.029,4330,1995,192.310,58.817,13.292
2019-07-10T00:50:05,42.805,6.029,4330,1995,192.554,58.891,13.292
2019-07-10T00:53:05,42.805,6.029,4330,1995,192.427,58.852,13.292
2019-07-10T00:56:05,42.805,6.029,4330,1995,192.518,58.879,13.292
2019-07-10T00:59:05,42.805,6.029,4330,1995,192.662,58.924,13.292
2019-07-10T01:02:05,42.805,6.029,4330,1995,192.521,58.880,13.291
2019-07-10T01:05:05,42.805,6.029,4330,1995,192.634,58.914,13.291
2019-07-10T01:08:05,42.805,6.029,4330,1995,192.684,58.930,13.291
2019-07-10T01:11:05,42.805,6.029,4330,1995,192.686,58.930,13.291
2019-07-10T01:14:05,42.805,6.029,4330,1995,192.626,58.911,13.291
2019-07-10T01:17:05,42.805,6.029,4330,1995,192.626,58.911,13.291
2019-07-10T01:20:05,42.805,6.029,4330,1995,192.691,58.931,13.291
2019-07-10T01:23:05,42.805,6.029,4330,1995,192.669,58.924,13.291
2019-07-10T01:26:05,42.805,6.029,4330,1995,192.659,58.921,13.290
2019-07-10T01:32:05,42.805,6.029,4330,1995,192.686,58.930,13.291
2019-07-10T01:35:05,42.805,6.029,4330,1995,192.783,58.960,13.291
2019-07-10T01:38:05,42.805,6.029,4330,1995,192.815,58.970,13.291
2019-07-10T01:41:05,42.805,6.029,4330,1995,192.895,58.995,13.292
2019-07-10T01:44:05,42.805,6.029,4330,1995,192.863,58.986,13.292
2019-07-10T01:47:05,42.805,6.029,4330,1995,192.905,58.999,13.292
2019-07-10T01:50:05,42.805,6.029,4330,1995,192.775,58.959,13.292
2019-07-10T01:53:05,42.805,6.029,4330,1995,192.774,58.959,13.293
2019-07-10T01:56:05,42.805,6.029,4330,1995,192.665,58.926,13.293
2019-07-10T01:59:05,42.805,6.029,4330,1995,192.751,58.952,13.292
2019-07-10T02:02:05,42.805,6.029,4330,1995,192.772,58.957,13.292
2019-07-10T02:05:05,42.805,6.029,4330,1995,192.727,58.943,13.291
2019-07-10T02:08:05,42.805,6.029,4330,1995,192.773,58.958,13.292
2019-07-10T02:11:05,42.805,6.029,4330,1995,192.735,58.946,13.292
2019-07-10T02:14:05,42.805,6.029,4330,1995,192.683,58.930,13.292
2019-07-10T02:17:05,42.805,6.029,4330,1995,192.653,58.920,13.291
2019-07-10T02:20:05,42.805,6.029,4330,1995,192.745,58.949,13.292
2019-07-10T02:23:05,42.805,6.029,4330,1995,192.748,58.949,13.291
2019-07-10T02:26:05,42.805,6.029,4330,1995,192.872,58.986,13.290
2019-07-10T02:29:05,42.805,6.029,4330,1995,192.857,58.981,13.290
2019-07-10T02:32:05,42.805,6.029,4330,1995,192.944,59.008,13.290
2019-07-10T02:35:05,42.805,6.029,4330,1995,192.966,59.014,13.290
2019-07-10T02:38:05,42.805,6.029,4330,1995,193.005,59.025,13.289
2019-07-10T02:41:05,42.805,6.029,4330,1995,193.030,59.034,13.290
2019-07-10T02:44:05,42.805,6.029,4330,1995,192.926,59.003,13.291
2019-07-10T02:47:05,42.805,6.029,4330,1995,192.923,59.001,13.290
2019-07-10T02:50:05,42.805,6.029,4330,1995,192.866,58.983,13.289
2019-07-10T02:53:05,42.805,6.029,4330,1995,192.960,59.012,13.290
2019-07-10T02:56:05,42.805,6.029,4330,1995,193.027,59.033,13.290
2019-07-10T02:59:05,42.805,6.029,4330,1995,193.056,59.041,13.290
2019-07-10T03:02:05,42.805,6.029,4330,1995,193.137,59.067,13.290
2019-07-10T03:05:05,42.805,6.029,4330,1995,193.032,59.035,13.290
2019-07-10T03:08:05,42.805,6.029,4330,1995,193.039,59.037,13.290
2019-07-10T03:11:05,42.805,6.029,4330,1995,192.987,59.022,13.291
2019-07-10T03:14:05,42.805,6.029,4330,1995,192.898,58.994,13.290
2019-07-10T03:17:05,42.805,6.029,4330,1995,193.017,59.033,13.292
2019-07-10T03:20:05,42.805,6.029,4330,1995,192.967,59.015,13.291
2019-07-10T03:23:05,42.805,6.029,4330,1995,193.060,59.043,13.290
2019-07-10T03:26:05,42.805,6.029,4330,1995,193.073,59.048,13.291
2019-07-10T03:29:05,42.805,6.029,4330,1995,193.128,59.066,13.292
2019-07-10T03:32:05,42.805,6.029,4330,1995,193.024,59.034,13.292
2019-07-10T03:35:05,42.805,6.029,4330,1995,192.918,59.002,13.292
2019-07-10T03:38:05,42.805,6.029,4330,1995,193.000,59.026,13.291
2019-07-10T03:41:05,42.805,6.029,4330,1995,193.053,59.044,13.292
2019-07-10T03:44:05,42.805,6.029,4330,1995,193.016,59.032,13.292
2019-07-10T03:47:05,42.805,6.029,4330,1995,193.072,59.048,13.291
2019-07-10T03:50:05,42.805,6.029,4330,1995,193.123,59.065,13.292
2019-07-10T03:53:05,42.805,6.029,4330,1995,193.021,59.034,13.292
2019-07-10T03:56:05,42.805,6.029,4330,1995,193.153,59.074,13.292
2019-07-10T03:59:05,42.805,6.029,4330,1995,193.120,59.064,13.292
2019-07-10T04:05:05,42.805,6.029,4330,1995,193.150,59.070,13.290
2019-07-10T04:08:05,42.805,6.029,4330,1995,193.140,59.065,13.288
2019-07-10T04:11:05,42.805,6.029,4330,1995,193.218,59.091,13.290
2019-07-10T04:14:05,42.805,6.029,4330,1995,193.168,59.076,13.290
2019-07-10T04:17:05,42.805,6.029,4330,1995,193.243,59.100,13.291
2019-07-10T04:20:05,42.805,6.029,4330,1995,193.172,59.078,13.291
2019-07-10T04:23:05,42.805,6.029,4330,1995,193.087,59.052,13.291
2019-07-10T04:26:05,42.805,6.029,4330,1995,193.137,59.069,13.292
2019-07-10T04:29:05,42.805,6.029,4330,1995,193.159,59.073,13.290
2019-07-10T04:32:05,42.805,6.029,4330,1995,193.185,59.083,13.292
2019-07-10T04:35:05,42.805,6.029,4330,1995,193.150,59.071,13.291
2019-07-10T04:38:05,42.805,6.029,4330,1995,193.223,59.094,13.291
2019-07-10T04:41:05,42.805,6.029,4330,1995,193.232,59.097,13.291
2019-07-10T04:44:05,42.805,6.029,4330,1995,193.200,59.087,13.291
2019-07-10T04:47:05,42.805,6.029,4330,1995,193.217,59.093,13.291
2019-07-10T04:50:05,42.805,6.029,4330,1995,193.199,59.089,13.293
2019-07-10T04:53:05,42.805,6.029,4330,1995,193.218,59.093,13.291
2019-07-10T04:56:05,42.805,6.029,4330,1995,193.195,59.086,13.291
2019-07-10T04:59:05,42.805,6.029,4330,1995,193.217,59.093,13.291
2019-07-10T05:02:05,42.805,6.029,4330,1995,193.239,59.099,13.291
2019-07-10T05:05:05,42.805,6.029,4330,1995,193.200,59.087,13.291
2019-07-10T05:08:05,42.805,6.029,4330,1995,193.098,59.061,13.295
2019-07-10T05:11:05,42.805,6.029,4330,1995,193.027,59.038,13.293
2019-07-10T05:14:05,42.805,6.029,4330,1995,192.991,59.025,13.292
2019-07-10T05:17:05,42.805,6.029,4330,1995,193.022,59.035,13.293
2019-07-10T05:20:05,42.805,6.029,4330,1995,193.042,59.040,13.292
2019-07-10T05:23:05,42.805,6.029,4330,1995,193.003,59.031,13.294
2019-07-10T05:26:05,42.805,6.029,4330,1995,192.943,59.011,13.293
2019-07-10T05:29:05,42.805,6.029,4330,1995,192.837,58.980,13.294
2019-07-10T05:32:05,42.805,6.029,4330,1995,192.824,58.975,13.293
2019-07-10T05:35:05,42.805,6.029,4330,1995,192.842,58.978,13.292
2019-07-10T05:38:05,42.805,6.029,4330,1995,192.966,59.017,13.292
2019-07-10T05:41:05,42.805,6.029,4330,1995,192.831,58.976,13.292
2019-07-10T05:44:05,42.805,6.029,4330,1995,192.899,58.997,13.293
2019-07-10T05:47:05,42.805,6.029,4330,1995,192.841,58.980,13.293
2019-07-10T05:50:05,42.805,6.029,4330,1995,192.691,58.934,13.293
2019-07-10T05:53:05,42.805,6.029,4330,1995,192.602,58.906,13.293
2019-07-10T05:56:05,42.805,6.029,4330,1995,192.704,58.936,13.292
2019-07-10T05:59:05,42.805,6.029,4330,1995,192.762,58.954,13.292
2019-07-10T06:02:05,42.805,6.029,4330,1995,192.742,58.948,13.292
2019-07-10T06:05:05,42.805,6.029,4330,1995,192.693,58.934,13.292
2019-07-10T06:08:05,42.805,6.029,4330,1995,192.617,58.909,13.291
2019-07-10T06:11:05,42.805,6.029,4330,1995,192.668,58.925,13.291
2019-07-10T06:14:05,42.805,6.029,4330,1995,192.640,58.920,13.294
2019-07-10T06:17:05,42.805,6.029,4330,1995,192.604,58.908,13.293
2019-07-10T06:20:05,42.805,6.029,4330,1995,192.546,58.889,13.292
2019-07-10T06:23:05,42.805,6.029,4330,1995,192.559,58.893,13.293
2019-07-10T06:26:05,42.805,6.029,4330,1995,192.536,58.886,13.292
2019-07-10T06:29:05,42.805,6.029,4330,1995,192.597,58.904,13.292
2019-07-10T06:32:05,42.805,6.029,4330,1995,192.487,58.871,13.293
2019-07-10T06:35:05,42.805,6.029,4330,1995,192.547,58.890,13.293
2019-07-10T06:41:05,42.805,6.029,4330,1995,192.593,58.901,13.290
2019-07-10T06:44:05,42.805,6.029,4330,1995,192.569,58.894,13.291
2019-07-10T06:47:05,42.805,6.029,4330,1995,192.544,58.888,13.292
2019-07-10T06:50:05,42.805,6.029,4330,1995,192.527,58.883,13.292
2019-07-10T06:53:05,42.805,6.029,4330,1995,192.524,58.882,13.292
2019-07-10T06:56:05,42.805,6.029,4330,1995,192.521,58.882,13.293
2019-07-10T06:59:05,42.805,6.029,4330,1995,192.469,58.866,13.293
2019-07-10T07:02:05,42.805,6.029,4330,1995,192.506,58.876,13.292
2019-07-10T07:05:05,42.805,6.029,4330,1995,192.451,58.860,13.293
2019-07-10T07:08:05,42.805,6.029,4330,1995,192.329,58.822,13.292
2019-07-10T07:11:05,42.805,6.029,4330,1995,192.310,58.817,13.292
2019-07-10T07:14:05,42.805,6.029,4330,1995,192.165,58.772,13.292
2019-07-10T07:17:05,42.805,6.029,4330,1995,192.198,58.783,13.292
2019-07-10T07:20:05,42.805,6.029,4330,1995,192.286,58.809,13.292
2019-07-10T07:23:05,42.805,6.029,4330,1995,192.268,58.804,13.292
2019-07-10T07:26:05,42.805,6.029,4330,1995,192.350,58.829,13.292
2019-07-10T07:29:05,42.805,6.029,4330,1995,192.303,58.816,13.293
2019-07-10T07:32:05,42.805,6.029,4330,1995,192.399,58.844,13.292
2019-07-10T07:35:05,42.805,6.029,4330,1995,192.362,58.834,13.293
2019-07-10T07:38:05,42.805,6.029,4330,1995,192.254,58.800,13.293
2019-07-10T07:41:05,42.805,6.029,4330,1995,192.300,58.814,13.293
2019-07-10T07:44:05,42.805,6.029,4330,1995,192.181,58.779,13.294
2019-07-10T07:47:05,42.805,6.029,4330,1995,192.202,58.785,13.293
2019-07-10T07:50:05,42.805,6.029,4330,1995,192.267,58.806,13.294
2019-07-10T07:53:05,42.805,6.029,4330,1995,192.270,58.806,13.294
2019-07-10T07:56:05,42.805,6.029,4330,1995,192.268,58.805,13.293
2019-07-10T07:59:05,42.805,6.029,4330,1995,192.244,58.798,13.293
2019-07-10T08:02:05,42.805,6.029,4330,1995,192.176,58.778,13.294
2019-07-10T08:05:05,42.805,6.029,4330,1995,192.282,58.810,13.293
2019-07-10T08:08:05,42.805,6.029,4330,1995,192.256,58.802,13.294
2019-07-10T08:11:05,42.805,6.029,4330,1995,192.228,58.793,13.294
2019-07-10T08:14:05,42.805,6.029,4330,1995,192.226,58.793,13.294
2019-07-10T08:17:05,42.805,6.029,4330,1995,192.235,58.796,13.294
2019-07-10T08:20:05,42.805,6.029,4330,1995,192.188,58.781,13.294
2019-07-10T08:23:05,42.805,6.029,4330,1995,192.184,58.780,13.294
2019-07-10T08:26:05,42.805,6.029,4330,1995,192.200,58.785,13.294
2019-07-10T08:29:05,42.805,6.029,4330,1995,192.145,58.769,13.294
2019-07-10T08:32:05,42.805,6.029,4330,1995,192.173,58.777,13.294
2019-07-10T08:35:05,42.805,6.029,4330,1995,192.191,58.783,13.294
2019-07-10T08:38:05,42.805,6.029,4330,1995,192.118,58.760,13.294
2019-07-10T08:41:05,42.805,6.029,4330,1995,192.171,58.776,13.294
2019-07-10T08:44:05,42.805,6.029,4330,1995,192.156,58.771,13.294
2019-07-10T08:47:05,42.805,6.029,4330,1995,192.159,58.772,13.294
2019-07-10T08:50:05,42.805,6.029,4330,1995,192.089,58.750,13.293
2019-07-10T08:53:05,42.805,6.029,4330,1995,192.104,58.755,13.293
2019-07-10T08:56:05,42.805,6.029,4330,1995,192.106,58.754,13.292
2019-07-10T08:59:05,42.805,6.029,4330,1995,192.160,58.770,13.292
2019-07-10T09:02:05,42.805,6.029,4330,1995,192.063,58.742,13.293
2019-07-10T09:05:05,42.805,6.029,4330,1995,192.109,58.755,13.292
2019-07-10T09:08:05,42.805,6.029,4330,1995,192.082,58.747,13.292
2019-07-10T09:11:05,42.805,6.029,4330,1995,192.053,58.737,13.292
2019-07-10T09:17:05,42.805,6.029,4330,1995,192.159,58.766,13.289
2019-07-10T09:20:05,42.805,6.029,4330,1995,192.061,58.741,13.293
2019-07-10T09:23:05,42.805,6.029,4330,1995,192.011,58.726,13.293
2019-07-10T09:26:05,42.805,6.029,4330,1995,192.064,58.743,13.294
2019-07-10T09:29:05,42.805,6.029,4330,1995,192.131,58.764,13.294
2019-07-10T09:32:05,42.805,6.029,4330,1995,192.158,58.773,13.294
2019-07-10T09:35:05,42.805,6.029,4330,1995,192.083,58.750,13.294
2019-07-10T09:38:05,42.805,6.029,4330,1995,192.090,58.750,13.293
2019-07-10T09:41:05,42.805,6.029,4330,1995,192.136,58.766,13.294
2019-07-10T09:44:05,42.805,6.029,4330,1995,192.012,58.728,13.294
2019-07-10T09:47:05,42.805,6.029,4330,1995,192.028,58.732,13.293
2019-07-10T09:50:05,42.805,6.029,4330,1995,192.015,58.728,13.293
2019-07-10T09:53:05,42.805,6.029,4330,1995,191.950,58.708,13.294
2019-07-10T09:56:05,42.805,6.029,4330,1995,191.981,58.717,13.293
2019-07-10T09:59:05,42.805,6.029,4330,1995,192.061,58.741,13.292
2019-07-10T10:02:05,42.805,6.029,4330,1995,192.061,58.740,13.292
2019-07-10T10:05:05,42.805,6.029,4330,1995,192.040,58.734,13.292
2019-07-10T10:08:05,42.805,6.029,4330,1995,192.089,58.749,13.292
2019-07-10T10:11:05,42.805,6.029,4330,1995,192.099,58.752,13.292
2019-07-10T10:14:05,42.805,6.029,4330,1995,192.016,58.726,13.292
2019-07-10T10:17:05,42.805,6.029,4330,1995,192.080,58.745,13.291
2019-07-10T10:20:05,42.805,6.029,4330,1995,192.004,58.723,13.292
2019-07-10T10:23:05,42.805,6.029,4330,1995,192.066,58.742,13.292
2019-07-10T10:26:05,42.805,6.029,4330,1995,192.000,58.722,13.292
2019-07-10T10:29:05,42.805,6.029,4330,1995,191.964,58.709,13.291
2019-07-10T10:32:05,42.805,6.029,4330,1995,192.072,58.742,13.291
2019-07-10T10:35:05,42.805,6.029,4330,1995,192.169,58.772,13.291
2019-07-10T10:38:05,42.805,6.029,4330,1995,192.055,58.738,13.292
2019-07-10T10:41:05,42.805,6.029,4330,1995,191.998,58.720,13.291
2019-07-10T10:44:05,42.805,6.029,4330,1995,192.047,58.735,13.291
2019-07-10T10:47:05,42.805,6.029,4330,1995,192.085,58.746,13.291
2019-07-10T10:50:05,42.805,6.029,4330,1995,191.982,58.716,13.292
2019-07-10T10:53:05,42.805,6.029,4330,1995,191.932,58.702,13.293
2019-07-10T10:56:05,42.805,6.029,4330,1995,191.965,58.712,13.293
2019-07-10T10:59:05,42.805,6.029,4330,1995,191.824,58.670,13.294
2019-07-10T11:02:05,42.805,6.029,4330,1995,192.034,58.733,13.293
2019-07-10T11:05:05,42.805,6.029,4330,1995,191.966,58.712,13.293
2019-07-10T11:08:05,42.805,6.029,4330,1995,191.859,58.681,13.294
2019-07-10T11:11:05,42.805,6.029,4330,1995,191.880,58.685,13.292
2019-07-10T11:14:05,42.805,6.029,4330,1995,191.943,58.707,13.294
2019-07-10T11:17:05,42.805,6.029,4330,1995,192.021,58.731,13.294
2019-07-10T11:20:05,42.805,6.029,4330,1995,192.049,58.737,13.292
2019-07-10T11:23:05,42.805,6.029,4330,1995,192.052,58.742,13.295
2019-07-10T11:26:05,42.805,6.029,4330,1995,191.999,58.723,13.294
2019-07-10T11:29:05,42.805,6.029,4330,1995,191.802,58.662,13.293
2019-07-10T11:32:05,42.805,6.029,4330,1995,191.993,58.720,13.293
2019-07-10T11:35:05,42.805,6.029,4330,1995,192.026,58.731,13.293
2019-07-10T11:38:05,42.805,6.029,4330,1995,192.093,58.752,13.293
2019-07-10T11:41:05,42.805,6.029,4330,1995,192.111,58.757,13.293
2019-07-10T11:44:05,42.805,6.029,4330,1995,191.991,58.721,13.294
2019-07-10T11:50:05,42.805,6.029,4330,1995,192.090,58.749,13.292
2019-07-10T11:53:05,42.805,6.029,4330,1995,191.934,58.697,13.289
2019-07-10T11:56:05,42.805,6.029,4330,1995,192.052,58.734,13.289
2019-07-10T11:59:05,42.805,6.029,4330,1995,192.185,58.776,13.290
2019-07-10T12:02:05,42.805,6.029,4330,1995,192.117,58.756,13.291
2019-07-10T12:05:05,42.805,6.029,4330,1995,192.185,58.778,13.292
2019-07-10T12:08:05,42.805,6.029,4330,1995,192.051,58.737,13.292
2019-07-10T12:11:05,42.805,6.029,4330,1995,192.009,58.724,13.292
2019-07-10T12:14:05,42.805,6.029,4330,1995,192.042,58.733,13.291
2019-07-10T12:17:05,42.805,6.029,4330,1995,192.131,58.761,13.291
2019-07-10T12:20:05,42.805,6.029,4330,1995,192.346,58.825,13.290
2019-07-10T12:23:05,42.805,6.029,4330,1995,192.484,58.868,13.291
2019-07-10T12:26:05,42.805,6.029,4330,1995,192.382,58.838,13.292
2019-07-10T12:29:05,42.805,6.029,4330,1995,192.273,58.804,13.291
2019-07-10T12:32:05,42.805,6.029,4330,1995,192.148,58.766,13.291
2019-07-10T12:35:05,42.805,6.029,4330,1995,192.103,58.752,13.291
2019-07-10T12:38:05,42.805,6.029,4330,1995,192.113,58.755,13.292
2019-07-10T12:41:05,42.805,6.029,4330,1995,192.094,58.750,13.292
2019-07-10T12:44:05,42.805,6.029,4330,1995,192.150,58.767,13.292
2019-07-10T12:47:05,42.805,6.029,4330,1995,192.078,58.746,13.292
2019-07-10T12:50:05,42.805,6.029,4330,1995,192.169,58.774,13.293
2019-07-10T12:53:05,42.805,6.029,4330,1995,192.173,58.775,13.293
2019-07-10T12:56:05,42.805,6.029,4330,1995,192.046,58.738,13.294
2019-07-10T12:59:05,42.805,6.029,4330,1995,192.051,58.738,13.293
2019-07-10T13:02:05,42.805,6.029,4330,1995,192.091,58.750,13.293
2019-07-10T13:05:05,42.805,6.029,4330,1995,192.205,58.785,13.292
2019-07-10T13:08:05,42.805,6.029,4330,1995,192.163,58.773,13.294
2019-07-10T13:11:05,42.805,6.029,4330,1995,192.142,58.767,13.293
2019-07-10T13:14:05,42.805,6.029,4330,1995,192.313,58.816,13.291
2019-07-10T13:17:05,42.805,6.029,4330,1995,192.277,58.806,13.292
2019-07-10T13:20:05,42.805,6.029,4330,1995,192.340,58.825,13.292
2019-07-10T13:23:05,42.805,6.029,4330,1995,192.225,58.791,13.292
2019-07-10T13:26:05,42.805,6.029,4330,1995,192.341,58.824,13.290
2019-07-10T13:29:05,42.805,6.029,4330,1995,192.258,58.799,13.291
2019-07-10T13:32:05,42.805,6.029,4330,1995,192.176,58.774,13.291
2019-07-10T13:35:05,42.805,6.029,4330,1995,192.082,58.745,13.291
2019-07-10T13:38:05,42.805,6.029,4330,1995,192.231,58.791,13.291
2019-07-10T13:41:05,42.805,6.029,4330,1995,192.200,58.781,13.291
2019-07-10T13:44:05,42.805,6.029,4330,1995,192.113,58.755,13.291
2019-07-10T13:47:05,42.805,6.029,4330,1995,192.021,58.727,13.291
2019-07-10T13:50:05,42.805,6.029,4330,1995,192.091,58.747,13.290
2019-07-10T13:53:05,42.805,6.029,4330,1995,192.301,58.812,13.291
2019-07-10T13:56:05,42.805,6.029,4330,1995,192.299,58.812,13.291
2019-07-10T13:59:05,42.805,6.029,4330,1995,192.269,58.803,13.291
2019-07-10T14:02:05,42.805,6.029,4330,1995,192.238,58.794,13.292
2019-07-10T14:05:05,42.805,6.029,4330,1995,192.297,58.812,13.292
2019-07-10T14:08:05,42.805,6.029,4330,1995,192.174,58.774,13.291
2019-07-10T14:11:05,42.805,6.029,4330,1995,192.232,58.792,13.291
2019-07-10T14:14:05,42.805,6.029,4330,1995,192.226,58.789,13.291
2019-07-10T14:17:05,42.805,6.029,4330,1995,192.385,58.838,13.291
2019-07-10T14:20:05,42.805,6.029,4330,1995,192.442,58.858,13.293
2019-07-10T14:26:05,42.805,6.029,4330,1995,192.206,58.781,13.290
2019-07-10T14:29:05,42.805,6.029,4330,1995,192.163,58.769,13.290
2019-07-10T14:32:05,42.805,6.029,4330,1995,192.195,58.781,13.292
2019-07-10T14:35:05,42.805,6.029,4330,1995,192.119,58.757,13.291
2019-07-10T14:38:05,42.805,6.029,4330,1995,192.028,58.729,13.291
2019-07-10T14:41:05,42.805,6.029,4330,1995,192.071,58.741,13.290
2019-07-10T14:44:05,42.805,6.029,4330,1995,192.092,58.747,13.290
2019-07-10T14:47:05,42.805,6.029,4330,1995,192.260,58.799,13.290
2019-07-10T14:50:05,42.805,6.029,4330,1995,192.151,58.766,13.290
2019-07-10T14:53:05,42.805,6.029,4330,1995,192.144,58.763,13.290
2019-07-10T14:56:05,42.805,6.029,4330,1995,192.107,58.751,13.290
2019-07-10T14:59:05,42.805,6.029,4330,1995,192.210,58.782,13.289
2019-07-10T15:02:05,42.805,6.029,4330,1995,192.271,58.803,13.291
2019-07-10T15:05:05,42.805,6.029,4330,1995,192.204,58.781,13.290
2019-07-10T15:08:05,42.805,6.029,4330,1995,192.428,58.850,13.291
2019-07-10T15:11:05,42.805,6.029,4330,1995,192.314,58.815,13.290
2019-07-10T15:14:05,42.805,6.029,4330,1995,192.346,58.824,13.290
2019-07-10T15:17:05,42.805,6.029,4330,1995,192.416,58.846,13.290
2019-07-10T15:20:05,42.805,6.029,4330,1995,192.569,58.893,13.290
2019-07-10T15:23:05,42.805,6.029,4330,1995,192.563,58.891,13.290
2019-07-10T15:26:05,42.805,6.029,4330,1995,192.448,58.857,13.291
2019-07-10T15:29:05,42.805,6.029,4330,1995,192.249,58.796,13.291
2019-07-10T15:32:05,42.805,6.029,4330,1995,192.246,58.795,13.291
2019-07-10T15:35:05,42.805,6.029,4330,1995,192.279,58.805,13.290
2019-07-10T15:38:05,42.805,6.029,4330,1995,192.264,58.800,13.291
2019-07-10T15:41:05,42.805,6.029,4330,1995,192.270,58.803,13.291
2019-07-10T15:44:05,42.805,6.029,4330,1995,192.252,58.798,13.291
2019-07-10T15:47:05,42.805,6.029,4330,1995,192.122,58.759,13.292
2019-07-10T15:50:05,42.805,6.029,4330,1995,192.117,58.757,13.292
2019-07-10T15:53:05,42.805,6.029,4330,1995,192.189,58.778,13.291
2019-07-10T15:56:05,42.805,6.029,4330,1995,192.266,58.802,13.291
2019-07-10T15:59:05,42.805,6.029,4330,1995,192.367,58.833,13.291
2019-07-10T16:02:05,42.805,6.029,4330,1995,192.338,58.824,13.292
2019-07-10T16:05:05,42.805,6.029,4330,1995,192.413,58.847,13.291
2019-07-10T16:08:05,42.805,6.029,4330,1995,192.372,58.837,13.293
2019-07-10T16:11:05,42.805,6.029,4330,1995,192.357,58.831,13.292
2019-07-10T16:14:05,42.805,6.029,4330,1995,192.189,58.778,13.291
2019-07-10T16:17:05,42.805,6.029,4330,1995,192.126,58.759,13.291
2019-07-10T16:20:05,42.805,6.029,4330,1995,192.170,58.774,13.292
2019-07-10T16:23:05,42.805,6.029,4330,1995,192.198,58.782,13.292
2019-07-10T16:26:05,42.805,6.029,4330,1995,192.279,58.806,13.292
2019-07-10T16:29:05,42.805,6.029,4330,1995,192.231,58.790,13.290
2019-07-10T16:32:05,42.805,6.029,4330,1995,192.323,58.818,13.291
2019-07-10T16:35:05,42.805,6.029,4330,1995,192.213,58.785,13.291
2019-07-10T16:38:05,42.805,6.029,4330,1995,192.195,58.779,13.291
2019-07-10T16:41:04,42.805,6.029,4330,1995,192.217,58.787,13.291
2019-07-10T16:44:04,42.805,6.029,4330,1995,192.256,58.798,13.290
2019-07-10T16:47:04,42.805,6.029,4330,1995,192.223,58.787,13.290
2019-07-10T16:50:04,42.805,6.029,4330,1995,192.231,58.789,13.290
2019-07-10T16:53:04,42.805,6.029,4330,1995,192.249,58.795,13.290
2019-07-10T16:56:04,42.805,6.029,4330,1995,192.244,58.793,13.290
2019-07-10T17:02:05,42.805,6.029,4330,1995,192.313,58.811,13.288
2019-07-10T17:05:05,42.805,6.029,4330,1995,192.227,58.789,13.291
2019-07-10T17:08:05,42.805,6.029,4330,1995,192.442,58.855,13.291
2019-07-10T17:11:05,42.805,6.029,4330,1995,192.511,58.877,13.291
2019-07-10T17:14:04,42.805,6.029,4330,1995,192.402,58.844,13.291
2019-07-10T17:17:04,42.805,6.029,4330,1995,192.312,58.816,13.291
2019-07-10T17:20:04,42.805,6.029,4330,1995,192.208,58.785,13.292
2019-07-10T17:23:04,42.805,6.029,4330,1995,192.189,58.779,13.292
2019-07-10T17:26:04,42.805,6.029,4330,1995,192.197,58.781,13.292
2019-07-10T17:29:04,42.805,6.029,4330,1995,192.431,58.851,13.290
2019-07-10T17:32:04,42.805,6.029,4330,1995,192.492,58.870,13.290
2019-07-10T17:35:04,42.805,6.029,4330,1995,192.497,58.871,13.290
2019-07-10T17:38:04,42.805,6.029,4330,1995,192.462,58.861,13.290
2019-07-10T17:41:04,42.805,6.029,4330,1995,192.431,58.851,13.291
2019-07-10T17:44:04,42.805,6.029,4330,1995,192.460,58.861,13.291
2019-07-10T17:47:04,42.805,6.029,4330,1995,192.308,58.814,13.291
2019-07-10T17:50:04,42.805,6.029,4330,1995,192.276,58.804,13.290
2019-07-10T17:53:04,42.805,6.029,4330,1995,192.277,58.804,13.290
2019-07-10T17:56:04,42.805,6.029,4330,1995,192.299,58.811,13.290
2019-07-10T17:59:04,42.805,6.029,4330,1995,192.373,58.833,13.290
2019-07-10T18:02:04,42.805,6.029,4330,1995,192.356,58.828,13.290
2019-07-10T18:05:04,42.805,6.029,4330,1995,192.340,58.823,13.290
2019-07-10T18:08:04,42.805,6.029,4330,1995,192.266,58.801,13.290
2019-07-10T18:11:04,42.805,6.029,4330,1995,192.362,58.830,13.290
2019-07-10T18:14:04,42.805,6.029,4330,1995,192.434,58.852,13.290
2019-07-10T18:17:04,42.805,6.029,4330,1995,192.373,58.833,13.290
2019-07-10T18:20:04,42.805,6.029,4330,1995,192.440,58.854,13.290
2019-07-10T18:23:04,42.805,6.029,4330,1995,192.477,58.865,13.290
2019-07-10T18:26:04,42.805,6.029,4330,1995,192.359,58.829,13.291
2019-07-10T18:29:04,42.805,6.029,4330,1995,192.199,58.780,13.290